Satellite: MET-3/5
Catalog number: 21655
Epoch time:      09050.85294102
Element set:     559
Inclination:      082.5525 deg
RA of node:       289.4020 deg
Eccentricity:    0.0014273
Arg of perigee:   110.6401 deg
Mean anomaly:     249.6254 deg
Mean motion:   13.17018223 rev/day
Decay rate:        5.1e-07 rev/day^2
Epoch rev:           84218
Checksum:              273

Satellite: MET-2/21
Catalog number: 22782
Epoch time:      09048.57164630
Element set:    0382
Inclination:      082.5449 deg
RA of node:       276.9030 deg
Eccentricity:    0.0021847
Arg of perigee:   325.7776 deg
Mean anomaly:     034.1987 deg
Mean motion:   13.83633807 rev/day
Decay rate:        3.4e-07 rev/day^2
Epoch rev:           78106
Checksum:              324

Satellite: OKEAN-4
Catalog number: 23317
Epoch time:      09049.45812048
Element set:    0833
Inclination:      082.5364 deg
RA of node:       085.2900 deg
Eccentricity:    0.0023444
Arg of perigee:   039.3971 deg
Mean anomaly:     320.8943 deg
Mean motion:   14.82674273 rev/day
Decay rate:     -.00000000 rev/day^2
Epoch rev:           77477
Checksum:              298

Satellite: NOAA-14
Catalog number: 23455
Epoch time:      09050.47567392
Element set:     517
Inclination:      098.9184 deg
RA of node:       128.5296 deg
Eccentricity:    0.0009870
Arg of perigee:   160.1404 deg
Mean anomaly:     200.0182 deg
Mean motion:   14.13759155 rev/day
Decay rate:       2.84e-06 rev/day^2
Epoch rev:           72929
Checksum:              313

Satellite: NOAA-15
Catalog number: 25338
Epoch time:      09050.49231890
Element set:     823
Inclination:      098.5775 deg
RA of node:       042.3280 deg
Eccentricity:    0.0011459
Arg of perigee:   044.2459 deg
Mean anomaly:     315.9638 deg
Mean motion:   14.24746728 rev/day
Decay rate:       1.02e-06 rev/day^2
Epoch rev:           56001
Checksum:              303

Satellite: RESURS
Catalog number: 25394
Epoch time:      09049.63843955
Element set:    0158
Inclination:      098.3547 deg
RA of node:       087.9370 deg
Eccentricity:    0.0001121
Arg of perigee:   160.6172 deg
Mean anomaly:     199.5048 deg
Mean motion:   14.24179873 rev/day
Decay rate:       -3.1e-07 rev/day^2
Epoch rev:           55152
Checksum:              315

Satellite: FENGYUN1
Catalog number: 25730
Epoch time:      09049.95916732
Element set:    0723
Inclination:      098.7459 deg
RA of node:       023.7092 deg
Eccentricity:    0.0021878
Arg of perigee:   190.4606 deg
Mean anomaly:     169.6110 deg
Mean motion:   14.07926219 rev/day
Decay rate:       2.75e-06 rev/day^2
Epoch rev:           50368
Checksum:              321

Satellite: OKEAN-0
Catalog number: 25860
Epoch time:      09050.83389138
Element set:     604
Inclination:      097.7753 deg
RA of node:       036.7504 deg
Eccentricity:    0.0000939
Arg of perigee:   105.2481 deg
Mean anomaly:     254.8828 deg
Mean motion:   14.73559209 rev/day
Decay rate:        3.1e-07 rev/day^2
Epoch rev:           51586
Checksum:              315

Satellite: NOAA-16
Catalog number: 26536
Epoch time:      09050.49417230
Element set:     298
Inclination:      099.1760 deg
RA of node:       051.3233 deg
Eccentricity:    0.0009780
Arg of perigee:   250.8777 deg
Mean anomaly:     109.1356 deg
Mean motion:   14.12509685 rev/day
Decay rate:       -6.1e-07 rev/day^2
Epoch rev:           43368
Checksum:              310

Satellite: NOAA-17
Catalog number: 27453
Epoch time:      09049.53895677
Element set:    0304
Inclination:      098.5004 deg
RA of node:       112.6165 deg
Eccentricity:    0.0012780
Arg of perigee:   109.4618 deg
Mean anomaly:     250.7948 deg
Mean motion:   14.24042264 rev/day
Decay rate:       1.38e-06 rev/day^2
Epoch rev:           34586
Checksum:              315

Satellite: NOAA-18
Catalog number: 28654
Epoch time:      09050.42638866
Element set:     790
Inclination:      098.8958 deg
RA of node:       354.6479 deg
Eccentricity:    0.0014219
Arg of perigee:   339.5682 deg
Mean anomaly:     020.4912 deg
Mean motion:   14.11233418 rev/day
Decay rate:      -1.89e-06 rev/day^2
Epoch rev:           19334
Checksum:              340

/EX
SB KEPS @ AMSAT  $ORB09050.M
Orbital Elements  09050.MISC

HR AMSAT ORBITAL ELEMENTS FOR MANNED AND MISCELLANEOUS SATELLITES
FROM WA5QGD FORT WORTH,TX February 19, 2009
Send Subscribe/unsubscribe to KEPS at 
http://www.amsat.org/mailman/listinfo/keps
BID: ORB09050.M
TO ALL RADIO AMATEURS BT

Satellite: HUBBLE
Catalog number: 20580
Epoch time:      09050.58826032
Element set:     330
Inclination:      028.4688 deg
RA of node:       149.5183 deg
Eccentricity:    0.0003872
Arg of perigee:   134.1879 deg
Mean anomaly:     225.9029 deg
Mean motion:   15.00456727 rev/day
Decay rate:       3.63e-06 rev/day^2
Epoch rev:           83217
Checksum:              297

Satellite: PO-34
Catalog number: 25520
Epoch time:      09050.84913617
Element set:     188
Inclination:      028.4617 deg
RA of node:       320.5826 deg
Eccentricity:    0.0005280
Arg of perigee:   106.2068 deg
Mean anomaly:     253.9111 deg
Mean motion:   15.17298402 rev/day
Decay rate:       3.88e-06 rev/day^2
Epoch rev:           57081
Checksum:              294

